Погода в Зелёном

Россия / Камчатский край     53°16′37″N   158°10′57″E
темп.,
°C
ветер,
м/с
пор.,
м/с
влажн.,
%
обл.,
%
осадки,
мм/ч
давл.,
гПа
погр.,
м
29 июля, чт
чт2900:00+17з3381100 0.0 100533
03:00+16зсз3388100 0.0 100522
06:00+15з3388100 0.1 100645
09:00+19зсз227240 0.0 1007358
12:00+22ю1155100 0.0 1006877
15:00+24юв3354100 0.0 10051204
18:00+20юв4567100 0.0 1006432
21:00+16юв3382100 0.0 1007106
30 июля, пт
пт3000:00+15юв2289100 0.1 100773
03:00+15вюв1192100 0.0 100753
06:00+15ссз119198 0.0 100648
09:00+16сз1187100 0.1 1005110
12:00+17сз1293100 3.1 1005176
15:00+17сз1291100 0.5 1004190
18:00+17зсз1194100 0.9 100263
21:00+17сз2295100 1.1 100350
31 июля, сб
сб3100:00+16сз1196100 2.4 100227
03:00+16сз2296100 1.6 100245
06:00+16ююв1297100 5.3 100239
09:00+11ю4798100 14.9 1006401
12:00+11ююв3497100 28.9 1008272
15:00+11ю2395100 2.6 1009311
18:00+10ююв2292100 2.8 1009290
21:00+10юв2293100 0.0 1009153
1 августа, вс
вс100:00+8ююв119540 0.0 101019
03:00+8сз1195100 0.0 101024
06:00+8сз11926 0.0 100911
09:00+13зсз2380100 0.0 1009414
12:00+15з3370100 0.0 1008916
15:00+17зюз446523 0.0 10071028
18:00+18зюз33602 0.0 1007804
21:00+13зюз22750 0.0 100812
2 августа, пн
пн200:00+10з32801 0.0 100915
03:00+8зсз43860 0.0 101028
06:00+7зсз44850 0.0 101136
09:00+13зсз34632 0.0 1011314
12:00+19з334411 0.0 1009769
15:00+21з464249 0.0 10081550
18:00+21сз810465 0.0 10061522
21:00+14з45700 0.0 100742